User: anonymous   Login
Location: Unspecified
(0.0000°N, 0.0000°E)
Time: 16:30:55
(UTC+00:00)
Language:

NATO 4A - Orbit

View from above orbital plane
View from above orbital plane
View from above satellite
View from above satellite

Ground track
Ground track

The orbit data is extracted from the following two-line orbital elements,

1 21047U 91001A   18110.43319826 -.00000170  00000-0  00000+0 0  9990
2 21047  13.1962  14.5446 0001501 252.9629 287.2156  0.98285038 98869
Epoch (UTC): 20 April 2018 10:23:48
Eccentricity: 0.0001501
inclination: 13.1962°
perigee height: 36346 km
apogee height: 36359 km
right ascension of ascending node: 14.5446°
argument of perigee: 252.9629°
revolutions per day: 0.98285038
mean anomaly at epoch: 287.2156°
orbit number at epoch: 9886

The dashed part of the orbit path shows where the satellite is in the earth's shadow,  

DLR